Dewpoint
54 55 56 56 56 56 56 56 56 56 55 54 54 54 54 54 53 54 54 55 57 57 58 56 55 55 55 55 55 57 57 24 21 21 26 34 50 53 54 54 55 56 55 35 29 21 19 20 19 19 21 20 23 22 24 23 30 27 23 21 20 21 21 22 21 21 21 22 22 22 23 23 23 24 24 25 26 27 28 28 29 30 32 32 33 34 36 35
54 55 56 56 56 56 56 56 56 56 55 55 55 55 56 55 55 55 56 55 56 57 58 58 56 53 54 54 53 53 39 25 22 19 20 42 53 53 54 54 55 55 49 30 32 22 20 21 20 18 18 18 25 20 24 22 26 25 24 21 18 22 22 23 22 23 22 22 23 23 23 24 24 24 24 21 24 26 23 25 27 28 30 30 32 35 33 31
55 55 55 56 56 55 56 56 56 56 56 55 55 54 55 56 56 56 56 56 57 56 56 57 58 55 52 53 54 55 38 34 19 18 20 48 52 54 54 55 54 54 38 35 33 25 23 24 23 18 20 17 20 20 21 18 27 23 19 20 22 25 23 25 25 25 24 24 23 23 24 24 24 24 25 23 25 25 24 25 26 26 27 28 31 34 32 30
55 55 55 55 55 56 56 56 56 56 56 55 54 55 56 56 56 57 57 57 57 57 56 57 58 59 49 53 56 40 39 26 12 19 21 48 52 53 53 54 53 48 38 35 28 27 30 28 22 20 20 19 22 20 19 20 18 21 20 21 22 24 23 24 25 26 24 24 25 24 24 23 25 25 25 25 23 25 25 27 27 26 27 28 30 31 28 25
55 53 53 55 55 55 55 56 56 57 55 55 56 55 55 55 56 56 57 58 58 56 57 58 59 53 52 55 55 37 30 10 3 23 25 48 51 53 52 52 51 44 38 36 30 31 26 25 27 22 21 19 22 23 21 19 23 23 21 23 23 25 23 25 26 28 24 25 24 24 23 24 24 25 25 25 24 24 25 26 27 27 27 28 26 26 24 21
53 53 55 55 55 55 56 55 56 56 56 56 54 56 55 55 54 56 57 57 58 58 57 55 57 54 44 48 38 34 25 -5 14 24 46 47 50 52 52 51 49 43 37 35 33 30 23 23 19 20 21 19 20 20 21 22 24 21 22 23 24 24 23 25 26 27 23 23 23 23 23 25 24 25 25 25 25 26 28 27 27 27 29 29 29 24 21 20
53 55 55 54 54 55 55 55 55 56 56 55 56 55 56 56 55 55 55 58 58 57 57 53 55 57 51 44 24 21 16 16 27 28 44 49 49 49 50 49 46 38 38 37 36 32 31 23 21 23 22 20 21 21 22 22 23 20 20 22 23 24 23 25 23 28 23 22 22 23 30 24 24 24 25 25 26 27 27 27 27 27 29 25 20 21 19 21
54 55 53 53 55 55 55 55 55 55 55 56 55 55 55 55 54 55 56 58 55 55 51 52 52 52 50 31 22 16 20 20 22 29 43 47 40 38 43 36 36 37 37 38 37 36 35 32 26 26 21 18 22 21 24 21 22 21 21 23 23 23 24 24 25 26 27 23 26 28 26 26 24 25 25 24 26 26 26 27 27 28 24 22 19 16 15 16
55 54 52 54 54 54 55 56 56 56 56 55 55 55 54 54 55 55 59 58 54 56 51 48 51 50 51 33 20 9 15 22 28 29 33 32 34 33 35 34 36 36 36 37 39 38 33 31 28 28 20 21 22 21 23 22 18 22 22 23 22 20 22 23 23 24 28 28 28 24 23 24 27 26 24 24 25 26 27 26 27 23 22 21 20 17 14 13
54 54 53 54 54 54 55 55 56 55 56 54 55 56 56 56 57 57 55 56 54 56 55 45 43 41 31 26 18 7 18 31 34 30 32 34 35 32 32 36 36 34 33 35 37 38 36 34 30 35 26 22 25 20 23 18 16 23 21 21 19 20 22 23 22 22 23 25 26 25 23 23 27 26 22 24 25 27 26 26 24 21 20 19 20 19 16 13
53 54 53 53 53 54 55 55 57 57 56 57 57 56 52 53 54 55 54 54 54 56 55 51 44 36 25 24 16 13 24 32 30 31 35 35 33 31 33 37 38 33 33 33 35 39 38 38 38 40 29 21 26 22 22 23 21 19 20 22 22 24 25 24 22 22 23 21 22 23 25 28 30 25 23 24 24 28 26 26 22 19 19 18 17 16 21 15
53 54 53 53 54 54 55 56 56 57 57 57 58 57 51 52 54 55 54 55 53 56 56 50 47 35 24 22 21 22 31 31 31 32 35 36 33 35 37 38 40 37 32 28 31 37 40 37 36 32 22 28 21 23 21 26 21 20 22 21 22 23 25 25 22 23 22 20 22 23 22 23 25 23 24 24 26 27 26 24 21 21 20 19 16 13 13 14
53 53 53 54 53 54 54 55 55 56 56 57 57 58 52 52 53 55 55 53 53 56 57 52 39 34 27 13 20 31 36 33 35 36 34 34 35 36 37 37 41 38 37 33 31 36 40 37 34 30 34 27 21 18 21 24 20 21 21 21 19 19 22 24 27 24 21 22 24 20 7 12 19 24 25 25 26 25 25 23 22 22 23 22 17 13 12 12
53 52 53 53 54 54 53 54 54 55 56 55 55 55 53 52 53 54 55 52 53 58 52 53 40 29 17 16 27 34 38 38 35 31 34 33 33 33 32 34 40 41 42 38 35 40 38 39 38 35 36 29 23 33 21 20 20 19 21 22 18 20 18 21 25 23 22 23 23 20 12 13 18 20 23 26 28 25 24 24 23 23 24 25 21 15 13 11
52 52 53 53 54 54 53 53 54 55 55 55 55 55 52 51 53 54 55 51 53 55 56 48 38 31 20 21 32 38 51 34 28 31 37 31 34 31 31 34 37 40 41 37 34 40 38 36 31 30 27 34 35 28 24 21 23 25 16 15 20 20 19 22 27 23 22 23 23 18 17 17 17 21 21 28 26 25 23 23 23 24 25 25 23 16 14 13
53 52 53 53 53 53 53 54 53 53 55 56 55 55 52 50 52 52 53 55 54 48 37 30 32 19 14 18 20 44 35 26 25 33 36 35 34 31 33 37 40 39 40 36 41 41 38 30 24 25 28 27 28 24 19 20 21 23 20 18 20 21 19 20 24 25 25 22 22 19 11 20 19 22 22 26 26 26 23 23 24 26 26 26 24 18 16 16
52 51 52 52 53 53 53 53 53 54 55 55 55 53 54 48 49 51 51 49 45 40 32 25 23 32 13 25 34 27 26 31 34 35 34 33 36 35 37 38 34 37 39 36 33 35 29 29 31 23 26 24 24 25 20 17 19 19 23 21 21 21 21 11 19 22 24 21 16 22 20 21 20 22 22 24 26 25 24 23 24 26 26 27 26 18 16 17
51 52 51 51 53 53 52 53 53 54 54 54 55 56 47 54 45 43 42 40 40 36 33 35 25 24 18 29 20 22 28 31 32 33 34 31 37 36 37 34 35 34 35 29 29 21 25 19 26 12 18 19 23 20 16 11 19 21 23 22 21 22 22 16 16 18 24 22 19 21 20 20 22 23 22 22 25 23 23 24 25 25 24 26 27 24 18 19
51 51 51 51 53 53 55 54 54 54 53 55 56 55 54 51 39 29 31 31 23 18 15 17 23 13 3 17 26 30 31 32 36 31 29 31 35 38 38 38 35 29 24 21 17 22 19 20 20 15 14 16 17 23 17 19 23 22 23 22 22 21 18 12 14 23 25 22 21 21 22 23 23 23 23 23 23 23 24 26 26 26 28 27 27 23 21 22
51 52 51 52 52 54 55 54 52 54 52 48 41 39 37 32 23 21 27 31 25 22 22 26 29 28 30 28 27 31 36 36 26 28 31 33 35 33 31 31 30 24 26 18 23 18 19 11 12 9 14 17 20 22 23 24 24 24 24 23 20 19 14 16 13 24 27 23 22 23 24 23 23 22 23 24 24 25 24 25 24 23 23 23 18 13 14 17
52 52 52 51 52 53 54 55 50 52 48 39 37 35 25 27 22 17 25 30 32 33 30 29 27 25 23 27 31 33 29 29 29 27 30 36 36 30 24 27 22 13 14 24 17 25 20 12 12 15 18 19 19 23 22 21 25 23 21 21 21 17 11 14 14 22 26 25 24 25 24 22 21 21 20 23 23 24 24 24 23 23 24 22 17 13 13 10
51 51 52 52 51 53 54 56 48 50 47 35 37 35 34 36 35 30 25 20 26 31 31 31 31 27 31 31 32 34 30 23 25 26 31 33 29 26 24 23 18 12 18 23 21 16 13 12 14 18 22 23 24 22 19 18 17 21 21 21 17 13 17 17 21 23 23 26 24 25 22 21 21 20 21 23 23 24 25 25 24 23 24 19 16 17 19 19
49 51 52 52 52 54 54 55 48 45 38 37 35 35 36 39 40 38 29 23 19 24 28 28 23 26 27 31 30 33 26 22 21 26 28 32 28 29 28 22 20 23 17 18 14 13 14 14 17 20 23 21 21 21 17 15 20 19 21 18 13 16 14 14 14 21 24 25 23 23 22 21 21 22 23 27 27 26 28 28 26 26 23 17 12 14 15 16
50 50 51 53 52 53 53 53 47 39 36 37 37 37 39 39 39 38 26 13 11 18 26 28 25 26 25 24 27 30 24 23 25 24 32 30 26 26 27 23 18 20 17 18 15 13 12 14 20 23 24 21 16 19 16 13 12 17 23 15 16 17 16 12 16 22 25 25 25 20 18 18 20 15 16 22 27 28 27 24 23 22 26 24 25 21 23 15
50 50 51 53 53 53 53 49 39 38 36 37 37 39 38 39 39 41 20 16 19 14 30 29 29 23 26 31 35 28 28 24 23 28 31 30 27 29 23 25 23 15 21 22 19 16 17 20 23 22 22 22 19 13 13 11 13 15 18 17 17 15 19 22 22 22 18 17 20 16 11 15 19 17 18 20 25 25 26 23 24 24 24 22 17 18 21 24
50 50 51 52 51 54 52 28 26 36 34 31 38 39 39 39 40 41 19 11 -3 6 23 16 31 18 29 24 33 29 28 21 23 29 37 29 31 27 27 21 22 17 17 16 13 16 14 21 21 18 20 19 20 16 16 13 11 12 13 20 22 21 21 15 23 19 15 12 19 15 13 9 17 16 17 20 21 20 21 23 25 25 25 25 19 18 19 21
49 50 50 52 50 50 26 15 29 39 32 31 40 39 39 40 40 37 19 10 5 7 11 21 21 19 26 25 29 27 19 16 30 30 30 33 27 31 21 17 23 21 20 15 23 13 16 15 18 17 16 17 16 15 15 15 12 13 16 24 21 16 15 15 21 17 15 17 17 13 15 8 11 16 19 21 19 19 19 18 19 25 27 26 24 20 19 21
49 49 49 50 49 44 18 30 35 36 36 39 40 40 39 39 39 33 17 -2 -9 16 12 19 22 29 27 28 30 22 17 23 19 22 32 34 27 26 24 19 18 20 24 23 11 13 15 16 16 15 15 16 13 15 17 18 13 14 20 20 18 18 18 20 21 21 20 17 12 16 11 11 8 16 17 20 17 18 18 17 19 21 27 27 26 24 20 20
49 49 49 50 50 47 39 37 35 32 37 39 39 39 40 39 32 22 12 -5 -4 11 20 22 31 25 28 30 25 27 26 27 18 23 30 30 28 23 22 21 22 24 25 21 16 18 19 15 15 17 16 12 13 15 17 18 15 19 21 22 23 23 23 23 21 23 19 11 9 12 10 7 12 16 12 18 17 15 15 16 20 23 26 27 26 24 20 17
50 49 49 48 44 37 39 37 37 36 38 39 39 39 40 34 25 17 2 -12 10 -6 21 20 22 17 26 22 21 23 21 22 26 26 29 21 21 28 27 29 24 21 20 24 20 20 21 29 28 15 11 15 15 18 19 19 19 22 22 22 23 23 20 18 19 19 8 5 12 13 11 9 6 14 11 10 11 13 15 17 21 25 27 27 27 23 18 15
49 49 47 46 36 34 37 29 34 38 39 39 39 38 33 25 16 2 -13 -4 12 7 22 17 17 26 22 19 15 21 22 23 22 26 22 25 19 21 23 22 25 23 23 22 20 22 22 23 25 25 26 22 21 21 24 22 22 19 18 17 20 20 17 13 5 2 7 7 12 16 12 10 4 13 14 14 13 16 15 14 17 23 25 26 26 24 17 14
49 49 47 41 43 37 24 20 35 39 39 39 37 31 23 -1 18 2 -7 19 -3 16 7 12 20 23 20 22 17 18 19 23 22 23 21 20 16 15 18 16 16 19 20 18 18 22 17 16 18 23 31 20 20 18 20 23 22 18 18 17 13 7 8 5 8 12 5 9 12 16 12 11 9 13 11 11 11 14 12 12 16 23 24 25 26 25 22 18
50 49 46 43 42 35 36 37 39 39 39 39 33 27 17 12 -4 1 4 6 -4 11 6 19 19 21 20 16 16 20 21 18 22 20 22 21 20 18 19 18 20 19 12 18 15 17 19 21 20 22 21 23 20 16 16 18 18 17 16 10 8 8 4 3 -4 1 3 12 16 11 14 10 13 13 15 13 14 16 15 15 19 24 25 25 25 25 22 21
49 47 36 42 37 38 37 41 39 39 39 37 30 26 20 10 -8 28 -0 5 -1 14 22 17 19 19 12 13 15 19 18 18 18 18 22 16 19 15 16 17 20 18 16 16 16 13 16 16 20 19 17 20 21 17 16 16 15 15 18 14 8 8 6 6 3 7 7 13 13 13 5 7 12 13 15 13 14 18 19 18 20 22 23 24 25 23 22 21
49 42 38 39 38 38 39 39 39 41 36 30 24 20 8 -4 1 0 -1 6 14 16 14 17 17 17 14 18 16 21 16 13 21 18 18 18 14 14 14 12 18 20 18 16 15 11 16 17 23 21 19 20 16 20 20 18 16 19 17 19 13 6 8 8 7 5 2 6 9 5 10 11 14 17 21 15 12 15 19 16 19 15 18 22 19 21 22 21
46 40 40 36 37 34 39 40 37 38 34 25 19 12 2 5 -2 8 12 21 24 9 15 17 19 16 12 18 17 17 21 14 19 16 15 15 16 13 17 18 16 20 16 15 14 10 15 17 19 22 20 17 16 21 19 20 13 18 19 6 8 18 14 4 9 8 6 1 7 4 14 16 18 9 8 13 13 14 14 18 18 16 16 18 19 22 22 23
36 36 29 34 31 34 37 38 39 34 29 27 18 1 4 2 12 20 30 23 24 21 15 9 13 8 7 8 13 18 15 19 17 17 11 17 15 14 17 20 19 19 19 18 15 15 11 15 21 18 17 19 18 19 22 18 20 17 10 11 19 21 17 10 8 2 1 6 5 10 11 14 15 9 18 14 10 15 16 15 17 18 19 18 19 20 21 22
36 35 34 35 28 35 37 36 35 31 26 21 16 23 10 4 18 25 27 27 25 20 16 15 9 15 6 11 15 13 18 19 17 16 10 14 10 20 18 18 20 17 18 21 15 14 17 15 19 18 17 20 23 22 22 22 22 14 11 12 14 7 11 8 4 5 5 2 8 11 15 14 15 16 16 16 8 13 16 17 16 15 16 18 20 21 23 25
35 31 22 30 35 37 37 36 34 32 27 17 16 21 16 14 24 27 27 27 27 22 14 10 9 10 10 11 12 16 17 14 15 12 10 12 15 18 16 18 16 19 19 20 15 19 19 11 16 20 18 20 21 19 13 18 22 16 21 13 14 16 8 9 6 6 7 7 7 10 10 12 16 16 15 15 7 13 17 15 14 16 18 18 18 21 23 25
29 25 18 35 35 38 38 34 25 25 24 18 16 9 15 16 24 27 27 28 21 16 18 14 11 12 11 6 14 10 13 14 13 12 12 12 13 20 16 20 12 17 20 21 16 18 15 14 11 19 20 22 16 19 16 16 14 17 19 14 14 10 13 13 10 10 9 6 5 7 9 14 17 18 17 14 6 12 16 15 17 18 18 19 19 20 22 24
32 27 27 36 36 36 33 27 22 17 16 16 10 9 18 15 23 27 28 28 27 25 23 18 17 8 11 14 11 16 12 16 14 11 11 12 14 12 21 17 18 15 19 16 18 16 7 14 11 16 16 15 16 22 21 21 17 16 15 12 15 13 10 7 10 7 7 6 5 7 10 15 16 14 14 7 4 12 19 15 17 18 19 19 20 20 20 21
24 13 19 36 36 35 31 24 22 16 19 16 14 21 22 32 18 23 23 23 25 22 23 22 21 17 15 14 15 16 14 16 15 13 14 12 16 15 20 21 18 18 14 12 14 20 16 14 11 12 15 16 18 21 22 20 18 14 17 12 17 15 14 6 8 6 5 6 5 6 6 12 18 21 14 7 7 9 12 16 18 18 19 19 20 20 21 22
23 16 27 36 36 34 25 23 26 23 18 19 24 25 25 22 20 23 18 20 15 20 20 18 22 15 16 14 12 13 17 14 15 14 15 15 12 18 22 19 20 20 21 18 18 16 25 9 8 14 16 19 19 19 19 19 19 14 13 14 13 14 14 15 11 9 8 5 6 2 3 11 17 19 19 18 17 18 18 18 18 19 20 20 20 20 20 21
25 26 25 33 37 35 27 11 11 17 20 20 21 22 25 20 20 15 16 19 19 17 22 20 21 21 16 21 16 9 16 11 18 16 14 16 14 24 22 20 17 16 15 17 16 19 10 13 11 8 9 11 12 15 15 11 14 15 15 17 13 14 13 14 11 10 8 6 8 6 7 12 19 21 21 20 18 18 18 19 19 19 19 20 19 20 21 22
28 29 24 32 32 33 26 22 19 19 22 17 16 17 18 17 24 23 20 20 25 19 22 21 22 21 16 16 13 14 11 13 11 15 15 17 15 23 20 20 20 22 27 28 26 23 12 12 9 8 9 11 13 13 13 12 16 17 15 17 13 13 13 13 8 3 6 5 10 5 8 15 18 20 18 18 18 18 18 19 19 19 19 19 20 20 20 21
24 15 22 28 28 27 27 26 23 23 20 15 12 15 19 16 22 25 24 22 26 24 23 23 21 22 20 17 10 10 10 12 11 10 12 13 17 20 18 20 21 22 31 25 27 19 8 11 11 14 13 14 17 18 19 21 15 13 14 15 15 15 16 15 12 6 11 6 9 13 13 15 15 16 16 17 17 18 18 18 18 18 19 20 20 20 21 21
25 15 16 14 25 25 20 23 21 22 20 22 14 16 15 18 20 18 18 12 22 18 17 21 20 16 15 17 14 12 12 10 11 10 12 13 18 21 20 21 23 29 23 26 26 15 9 8 13 14 14 15 16 16 17 18 14 14 14 14 15 15 16 15 13 11 13 8 12 14 15 14 15 16 17 17 18 18 18 17 18 18 19 19 19 19 24 21
19 18 19 17 19 16 15 14 24 23 24 24 19 20 19 18 18 12 17 22 20 18 12 15 22 22 20 16 17 11 11 9 10 9 15 16 16 16 16 20 20 25 26 20 24 17 12 8 11 12 12 13 14 14 14 14 14 14 14 15 14 15 15 14 14 15 14 12 13 15 16 14 15 16 17 17 17 17 17 18 18 18 19 19 19 19 19 19
27 22 19 21 20 19 20 19 26 24 22 23 25 21 17 15 16 19 16 16 16 17 19 12 16 20 22 22 16 14 15 10 10 9 11 11 14 16 14 17 21 21 20 17 14 13 13 8 11 13 14 14 14 15 15 15 14 14 14 14 15 15 15 15 15 15 15 15 15 15 15 15 16 16 17 17 18 18 18 19 19 19 19 20 20 20 19 19
20 21 15 24 24 20 21 24 26 24 19 24 18 18 20 18 14 19 20 15 13 13 20 17 19 22 22 22 19 15 17 18 15 10 14 15 14 16 15 17 15 18 19 15 13 11 13 9 18 10 10 14 15 16 15 15 15 14 15 15 15 15 15 16 16 16 16 16 16 15 15 15 17 18 18 19 19 19 19 19 18 19 20 20 20 20 19 19
27 28 28 23 19 17 22 21 22 23 18 17 21 21 22 19 18 22 20 23 19 16 19 18 22 23 23 22 21 20 23 22 20 19 22 18 15 21 14 16 19 15 19 18 15 13 12 10 9 5 13 13 10 13 13 14 14 14 14 14 15 15 14 15 15 16 16 15 15 15 15 15 17 18 19 19 19 19 19 19 19 19 19 20 20 20 20 20
29 31 30 28 21 26 16 18 18 18 16 24 24 23 21 21 23 21 16 22 24 24 22 22 24 23 20 20 21 22 24 23 24 25 24 23 23 23 22 21 20 19 18 19 18 13 10 9 8 7 11 11 10 10 13 13 11 8 11 15 14 15 16 16 16 18 17 16 15 13 15 17 18 22 19 18 18 19 19 19 19 20 20 20 20 20 20 20